Torna al catalogo

ONEWEB-0689

AttivoComunicazioniPO
NORAD 61597·PAYLOAD·🇬🇧 United Kingdom

Lanciato Oct 20, 2024 da Vandenberg Space Force Base

Loading…

Prossimi Passaggi (prossime 24 ore)

TLE

AggiornatoSource: CelesTrak SupGP

Epoca: Sep 14, 2026, 22:29 UTC

1 61597C 24188D   26257.93699491 -.00001612  00000+0 -45552-2 0  2574
2 61597  87.8968   3.2146 0001567 110.0651 350.1114 13.11414727    12

Traccia ONEWEB-0689 in tempo reale con AllMySat

Download on the App Store